• In Moldova, Republic
  • List of Countries
  • For 7 days
  • Water Temperature
  • Satellite Maps
  • Weather Map
  • Weather Widgets
  • user-avatar
    Login

    Hourly Weather Townsville

    Today, 16 July, Monday

    Time Temperature Precipitation Wind Pressure Humidity
    00:00 +16°C° 0 mm 2 mps 754 mmHg 79%
    01:00 +16°C° 0 mm 2 mps 754 mmHg 81%
    02:00 +16°C° 0 mm 1 mps 754 mmHg 83%
    03:00 +16°C° 0 mm 1 mps 754 mmHg 86%
    04:00 +15°C° 0 mm 1 mps 754 mmHg 88%
    05:00 +15°C° 0 mm 1 mps 754 mmHg 88%
    06:00 +15°C° 0 mm 2 mps 754 mmHg 88%
    07:00 +15°C° 0 mm 2 mps 755 mmHg 88%
    08:00 +18°C° 0 mm 2 mps 755 mmHg 76%
    09:00 +21°C° 0 mm 2 mps 755 mmHg 64%
    10:00 +26°C° 0 mm 2 mps 755 mmHg 53%
    11:00 +27°C° 0 mm 2 mps 755 mmHg 48%
    12:00 +29°C° 0 mm 2 mps 754 mmHg 44%
    13:00 +30°C° 0 mm 2 mps 754 mmHg 39%
    14:00 +30°C° 0 mm 3 mps 754 mmHg 36%
    15:00 +29°C° 0 mm 3 mps 753 mmHg 33%
    16:00 +29°C° 0 mm 3 mps 753 mmHg 30%
    17:00 +26°C° 0 mm 3 mps 753 mmHg 38%
    18:00 +24°C° 0 mm 2 mps 753 mmHg 46%
    19:00 +20°C° 0 mm 2 mps 754 mmHg 55%
    20:00 +19°C° 0 mm 2 mps 754 mmHg 54%
    21:00 +19°C° 0 mm 2 mps 754 mmHg 53%
    22:00 +19°C° 0 mm 1 mps 755 mmHg 52%
    23:00 +17°C° 0 mm 2 mps 755 mmHg 44%

    Tomorrow, 17 July, Tuesday

    Time Temperature Precipitation Wind Pressure Humidity
    00:00 +17°C° 0 mm 2 mps 755 mmHg 36%
    01:00 +16°C° 0 mm 3 mps 755 mmHg 28%
    02:00 +14°C° 0 mm 3 mps 755 mmHg 23%
    03:00 +14°C° 0 mm 3 mps 755 mmHg 18%
    04:00 +14°C° 0 mm 3 mps 755 mmHg 14%
    05:00 +13°C° 0 mm 3 mps 755 mmHg 13%
    06:00 +13°C° 0 mm 3 mps 756 mmHg 13%
    07:00 +13°C° 0 mm 3 mps 756 mmHg 13%
    08:00 +17°C° 0 mm 3 mps 756 mmHg 19%
    09:00 +20°C° 0 mm 3 mps 756 mmHg 26%
    10:00 +25°C° 0 mm 3 mps 757 mmHg 32%
    11:00 +26°C° 0 mm 3 mps 756 mmHg 36%
    12:00 +27°C° 0 mm 3 mps 756 mmHg 40%
    13:00 +28°C° 0 mm 4 mps 755 mmHg 44%
    14:00 +28°C° 0 mm 4 mps 755 mmHg 48%
    15:00 +27°C° 0 mm 4 mps 755 mmHg 53%
    16:00 +27°C° 0 mm 4 mps 754 mmHg 57%
    17:00 +25°C° 0 mm 4 mps 755 mmHg 68%
    18:00 +22°C° 0 mm 4 mps 755 mmHg 79%
    19:00 +20°C° 0 mm 4 mps 756 mmHg 90%
    20:00 +19°C° 0 mm 4 mps 756 mmHg 92%
    21:00 +19°C° 0 mm 4 mps 756 mmHg 93%
    22:00 +19°C° 0 mm 4 mps 757 mmHg 95%
    23:00 +19°C° 0 mm 4 mps 757 mmHg 96%

    Day after tomorrow, 18 July, Wednesday

    Time Temperature Precipitation Wind Pressure Humidity
    00:00 +18°C° 0 mm 4 mps 757 mmHg 96%
    01:00 +18°C° 0 mm 4 mps 756 mmHg 97%
    02:00 +18°C° 0 mm 4 mps 756 mmHg 97%
    03:00 +18°C° 0 mm 4 mps 756 mmHg 97%
    04:00 +18°C° 0 mm 4 mps 756 mmHg 98%
    05:00 +18°C° 0 mm 4 mps 756 mmHg 98%
    06:00 +18°C° 0 mm 4 mps 757 mmHg 98%
    07:00 +17°C° 0 mm 4 mps 757 mmHg 98%
    08:00 +20°C° 0 mm 4 mps 757 mmHg 87%
    09:00 +22°C° 0 mm 5 mps 758 mmHg 77%
    10:00 +25°C° 0 mm 5 mps 758 mmHg 66%
    11:00 +26°C° 0 mm 5 mps 757 mmHg 61%
    12:00 +27°C° 0 mm 6 mps 757 mmHg 56%
    13:00 +28°C° 0 mm 6 mps 756 mmHg 50%
    14:00 +27°C° 0 mm 6 mps 756 mmHg 53%
    15:00 +26°C° 0 mm 6 mps 755 mmHg 55%
    16:00 +26°C° 0 mm 6 mps 755 mmHg 57%
    17:00 +23°C° 0 mm 6 mps 755 mmHg 65%
    18:00 +21°C° 0 mm 5 mps 756 mmHg 73%
    19:00 +20°C° 0 mm 5 mps 756 mmHg 80%
    20:00 +19°C° 0 mm 5 mps 757 mmHg 83%
    21:00 +19°C° 0 mm 5 mps 757 mmHg 86%
    22:00 +17°C° 0 mm 5 mps 757 mmHg 89%
    23:00 +18°C° 0 mm 4 mps 757 mmHg 91%

    19 July, Thursday

    Time Temperature Precipitation Wind Pressure Humidity
    00:00 +18°C° 0 mm 4 mps 757 mmHg 92%
    01:00 +18°C° 0 mm 4 mps 757 mmHg 93%
    02:00 +17°C° 0 mm 4 mps 756 mmHg 93%
    03:00 +17°C° 0 mm 4 mps 756 mmHg 93%
    04:00 +17°C° 0 mm 4 mps 756 mmHg 93%
    05:00 +17°C° 0 mm 4 mps 756 mmHg 94%
    06:00 +17°C° 0 mm 4 mps 757 mmHg 95%
    07:00 +17°C° 0 mm 4 mps 757 mmHg 95%
    08:00 +19°C° 0 mm 4 mps 757 mmHg 85%
    09:00 +21°C° 0 mm 4 mps 757 mmHg 74%
    10:00 +25°C° 0 mm 4 mps 758 mmHg 64%
    11:00 +25°C° 0 mm 4 mps 757 mmHg 62%
    12:00 +26°C° 0 mm 4 mps 756 mmHg 59%
    13:00 +27°C° 0 mm 4 mps 756 mmHg 57%
    14:00 +26°C° 0 mm 4 mps 755 mmHg 58%
    15:00 +26°C° 0 mm 4 mps 755 mmHg 59%
    16:00 +26°C° 0 mm 4 mps 754 mmHg 60%
    17:00 +23°C° 0 mm 4 mps 755 mmHg 69%
    18:00 +21°C° 0 mm 3 mps 755 mmHg 78%
    19:00 +20°C° 0 mm 3 mps 755 mmHg 86%
    20:00 +19°C° 0 mm 3 mps 756 mmHg 89%
    21:00 +19°C° 0 mm 3 mps 756 mmHg 91%
    22:00 +19°C° 0 mm 3 mps 756 mmHg 93%
    23:00 +19°C° 0 mm 3 mps 756 mmHg 94%

    20 July, Friday

    Time Temperature Precipitation Wind Pressure Humidity
    00:00 +19°C° 0 mm 3 mps 756 mmHg 95%
    01:00 +19°C° 0 mm 2 mps 756 mmHg 95%
    02:00 +19°C° 0 mm 2 mps 755 mmHg 94%
    03:00 +20°C° 0 mm 2 mps 755 mmHg 93%
    04:00 +20°C° 0 mm 2 mps 755 mmHg 93%
    05:00 +20°C° 0 mm 2 mps 755 mmHg 93%
    06:00 +19°C° 0 mm 2 mps 755 mmHg 94%
    07:00 +20°C° 0 mm 1 mps 755 mmHg 95%
    08:00 +22°C° 0 mm 1 mps 756 mmHg 86%
    09:00 +24°C° 0 mm 1 mps 756 mmHg 76%
    10:00 +24°C° 0 mm 0 mps 756 mmHg 67%
    11:00 +27°C° 0 mm 1 mps 755 mmHg 63%
    12:00 +28°C° 0 mm 1 mps 755 mmHg 59%
    13:00 +29°C° 0 mm 1 mps 754 mmHg 55%
    14:00 +28°C° 0.1 mm 2 mps 754 mmHg 58%
    15:00 +28°C° 0.1 mm 2 mps 754 mmHg 62%
    16:00 +27°C° 0.1 mm 2 mps 753 mmHg 66%
    17:00 +25°C° 0.2 mm 2 mps 754 mmHg 73%
    18:00 +24°C° 0.2 mm 2 mps 754 mmHg 79%
    19:00 +23°C° 0.2 mm 2 mps 755 mmHg 86%
    20:00 +21°C° 0.1 mm 2 mps 755 mmHg 89%
    21:00 +21°C° 0.1 mm 2 mps 756 mmHg 92%
    22:00 +20°C° 0.1 mm 2 mps 756 mmHg 95%
    23:00 +20°C° 0.2 mm 2 mps 756 mmHg 94%

    21 July, Saturday

    Time Temperature Precipitation Wind Pressure Humidity
    00:00 +20°C° 0.2 mm 2 mps 756 mmHg 92%
    01:00 +20°C° 0.2 mm 2 mps 756 mmHg 91%
    02:00 +19°C° 0.1 mm 3 mps 756 mmHg 79%
    03:00 +17°C° 0.1 mm 4 mps 756 mmHg 68%
    04:00 +15°C° 0.1 mm 5 mps 756 mmHg 57%
    05:00 +15°C° 0 mm 5 mps 756 mmHg 54%
    06:00 +14°C° 0 mm 5 mps 757 mmHg 51%
    07:00 +13°C° 0 mm 6 mps 757 mmHg 48%
    08:00 +16°C° 0 mm 6 mps 758 mmHg 42%
    09:00 +20°C° 0 mm 5 mps 758 mmHg 37%
    10:00 +22°C° 0 mm 5 mps 758 mmHg 32%
    11:00 +25°C° 0 mm 5 mps 757 mmHg 30%
    12:00 +27°C° 0 mm 5 mps 757 mmHg 28%
    13:00 +29°C° 0 mm 4 mps 756 mmHg 26%
    14:00 +28°C° 0 mm 5 mps 756 mmHg 31%
    15:00 +28°C° 0 mm 5 mps 756 mmHg 35%
    16:00 +27°C° 0 mm 6 mps 755 mmHg 39%
    17:00 +24°C° 0 mm 6 mps 756 mmHg 55%
    18:00 +21°C° 0 mm 5 mps 757 mmHg 71%
    19:00 +19°C° 0 mm 5 mps 757 mmHg 87%
    20:00 +17°C° 0 mm 5 mps 757 mmHg 90%
    21:00 +17°C° 0 mm 5 mps 758 mmHg 92%
    22:00 +17°C° 0 mm 5 mps 758 mmHg 95%
    23:00 +16°C° 0 mm 5 mps 758 mmHg 94%
    Show more